Simultaneous Nadir Overpasses (SNOs) Predictions

Prediction of SNOs between GOES-16 and AQUA Satellite Orbit:

Table of predicted SNOs for the next 14.0 days since TLE Epoch: 1/23/2021
Index Date Time (GOES-16) GOES-16 Lat,Lon AQUA Lat,Lon Distance(km) Time Diff (sec)
1 01/24/2021 06:29:26 0.01, -75.20 -0.29, -73.87 152.47 80
2 01/24/2021 18:50:50 -0.01, -75.20 -0.85, -79.05 438.52 80
3 01/26/2021 06:17:15 0.01, -75.20 -0.88, -70.90 487.97 80
4 01/26/2021 18:38:40 -0.01, -75.20 -0.20, -76.10 102.82 80
5 01/28/2021 18:29:10 -0.01, -75.20 0.45, -73.15 233.32 80
6 01/29/2021 06:50:24 0.00, -75.21 0.69, -78.30 352.31 80
7 01/31/2021 06:38:14 0.01, -75.22 0.03, -75.35 15.47 80
8 02/02/2021 06:23:25 0.00, -75.23 -0.62, -72.40 321.95 80
9 02/02/2021 18:44:48 -0.01, -75.23 -0.50, -77.59 268.72 80
10 02/04/2021 18:35:17 -0.00, -75.25 0.11, -74.63 69.33 80
